Location: Poznań
(52.4062°N, 16.9234°E)
Time: 21:07:49
(UTC+02:00)

ISS - Pass Details

Date: 29 January 2019
Orbit: 411 x 421 km, 51.6° (Epoch: 16 October)

Event Time Altitude Azimuth Distance (km) Brightness Sun altitude
Rises 19:41:32 0° 275° (W) 2,377 1.3 -28.6°
Reaches altitude 10° 19:43:39 10° 273° (W) 1,512 0.0 -29.0°
Enters shadow 19:44:37 18° 271° (W) 1,122 -0.9 -29.1°
